Klamath Falls, OR

2:56 AM PST on December 03, 2016 (GMT -0800)
Klamath Falls International

Weather History for KLMT - October, 2014

Change the Weather History Date:

Monday, October 20, 2014

  Actual Average Record
Temperature  
Mean Temperature 47 °F 46 °F  
Max Temperature 56 °F 61 °F 78 °F (1999)
Min Temperature 38 °F 30 °F 19 °F (1949)
Degree Days  
Heating Degree Days 18 20  
Month to date heating degree days 240 319  
Since 1 July heating degree days 416 675  
Cooling Degree Days 0 0  
Month to date cooling degree days 0 0  
Year to date cooling degree days 327 169  
Moisture  
Dew Point 42 °F    
Average Humidity 75    
Maximum Humidity 92    
Minimum Humidity 63    
Precipitation  
Precipitation 0.19 in 0.03 in 0.26 in (1979)
Month to date precipitation 0.67 0.41  
Year to date precipitation 9.13 10.68  
Sea Level Pressure  
Sea Level Pressure 29.82 in    
Wind  
Wind Speed 12 mph (SSW)    
Max Wind Speed 24 mph    
Max Gust Speed 29 mph    
Visibility 10 miles    
Events Rain    
T = Trace of Precipitation, MM = Missing Value Source: NWS Daily Summary

Daily Weather History Graph

Daily Weather History Graph

Search for Another Location

Airport or City:

Trip Planner

Search our weather history database for the weather conditions in past years. The results will help you decide how hot, cold, wet, or windy it might be!

Date:

Astronomy

Oct. 20, 2014 Rise Set
Actual Time 7:25 AM PDT 6:17 PM PDT
Civil Twilight 6:57 AM PDT 6:45 PM PDT
Nautical Twilight 6:24 AM PDT 7:18 PM PDT
Astronomical Twilight 5:52 AM PDT 7:50 PM PDT
Moon 4:15 AM PDT (10/20) 4:45 PM PDT (10/20)
Length of Visible Light 11h 48m
Length of Day
10h 51m
Waning Crescent, 9% of the Moon is Illuminated
Oct 20
Waning Crescent
Oct 23
New
Oct 30
First Quarter
Nov 6
Full
Nov 14
Last Quarter

Hourly Weather History & Observations

Time (PDT) Temp. Windchill Dew Point Humidity Pressure Visibility Wind Dir Wind Speed Gust Speed Precip Events Conditions
12:53 AM 52.0 °F - 42.1 °F 69% 29.79 in 10.0 mi SSE 15.0 mph - N/A   Clear
1:53 AM 50.0 °F - 42.1 °F 74% 29.78 in 10.0 mi SSE 10.4 mph - N/A   Clear
2:53 AM 52.0 °F - 43.0 °F 71% 29.76 in 10.0 mi SSE 16.1 mph - N/A   Clear
3:53 AM 51.1 °F - 43.0 °F 74% 29.77 in 10.0 mi SSE 12.7 mph - N/A   Clear
4:53 AM 51.1 °F - 42.1 °F 71% 29.76 in 10.0 mi SSE 16.1 mph - N/A   Clear
5:53 AM 51.1 °F - 42.1 °F 71% 29.77 in 10.0 mi SSE 13.8 mph - N/A   Clear
6:53 AM 53.1 °F - 42.1 °F 66% 29.77 in 10.0 mi SSE 17.3 mph - N/A   Overcast
7:53 AM 53.1 °F - 42.1 °F 66% 29.78 in 10.0 mi SSE 16.1 mph - N/A   Overcast
8:53 AM 53.1 °F - 42.1 °F 66% 29.80 in 10.0 mi SE 15.0 mph - N/A   Overcast
9:53 AM 54.0 °F - 42.1 °F 64% 29.80 in 10.0 mi SE 13.8 mph - N/A   Overcast
10:53 AM 54.0 °F - 44.1 °F 69% 29.80 in 10.0 mi SSE 10.4 mph 25.3 mph 0.00 in   Overcast
11:53 AM 55.9 °F - 44.1 °F 64% 29.78 in 10.0 mi South 19.6 mph - 0.00 in Rain Light Rain
12:11 PM 51.1 °F - 46.9 °F 86% 29.86 in 9.0 mi West 13.8 mph - 0.03 in Rain Light Rain
12:32 PM 52.0 °F - 46.9 °F 83% 29.87 in 10.0 mi West 17.3 mph - 0.04 in Rain Light Rain
12:44 PM 51.1 °F - 46.0 °F 83% 29.87 in 10.0 mi West 15.0 mph - 0.04 in Rain Light Rain
12:53 PM 51.1 °F - 46.0 °F 83% 29.81 in 10.0 mi West 13.8 mph - 0.04 in Rain Light Rain
1:53 PM 52.0 °F - 45.0 °F 77% 29.82 in 10.0 mi WNW 11.5 mph - 0.00 in   Overcast
2:53 PM 53.1 °F - 43.0 °F 69% 29.80 in 10.0 mi West 12.7 mph - N/A   Overcast
3:53 PM 51.1 °F - 42.1 °F 71% 29.83 in 10.0 mi West 9.2 mph - 0.01 in Rain Light Rain
4:53 PM 51.1 °F - 44.1 °F 77% 29.81 in 10.0 mi SE 5.8 mph - 0.01 in   Mostly Cloudy
5:53 PM 51.1 °F - 39.0 °F 63% 29.80 in 10.0 mi West 10.4 mph - N/A   Scattered Clouds
6:53 PM 45.0 °F 41.2 °F 39.0 °F 80% 29.83 in 10.0 mi South 6.9 mph - N/A   Mostly Cloudy
7:53 PM 48.0 °F - 39.9 °F 74% 29.83 in 10.0 mi West 17.3 mph - 0.01 in Rain Light Rain
8:53 PM 44.1 °F 38.1 °F 39.0 °F 82% 29.91 in 10.0 mi WSW 11.5 mph - 0.05 in Rain Rain
9:37 PM 43.0 °F 38.8 °F 37.9 °F 82% 29.93 in 10.0 mi NNW 6.9 mph - 0.07 in Rain Light Rain
9:53 PM 43.0 °F 41.3 °F 37.9 °F 82% 29.91 in 10.0 mi West 3.5 mph - 0.07 in   Overcast
10:53 PM 39.9 °F 35.1 °F 37.9 °F 93% 29.92 in 10.0 mi SSW 6.9 mph - N/A   Scattered Clouds
11:53 PM 39.0 °F 34.0 °F 36.0 °F 89% 29.94 in 10.0 mi South 6.9 mph - N/A   Mostly Cloudy